IGO167 VAPO-VOBL

Flight info

Callsign IGO167
Flight time N/A
Altitude 37000
Route AVKOR1A AVKOR W128 EPKOS Q9 RIKBU RIKBU7F
Aircraft A20N/M-SDE2E3FGHIRWXY/LB1

Departure

Time 2026-04-24 05:58
Airport Pune International Airport (VAPO)

Arrival

Time N/A
Airport Kempegowda International Airport Bengaluru (VOBL)
Time Latitude Longitude Altitude Speed Heading
2026-04-24 05:57 18.58284 73.91048 1928 ft 0 kts 94°
2026-04-24 05:57 18.58275 73.91185 1927 ft 53 kts 94°
2026-04-24 05:58 18.58228 73.91855 1930 ft 132 kts 93°
2026-04-24 05:58 18.58172 73.93024 2316 ft 170 kts 91°
2026-04-24 05:58 18.58071 73.94261 3187 ft 166 kts 94°
2026-04-24 05:58 18.57939 73.95485 3985 ft 179 kts 93°
2026-04-24 05:59 18.57654 73.96887 4325 ft 212 kts 111°
2026-04-24 05:59 18.56573 73.98082 4456 ft 250 kts 152°
2026-04-24 05:59 18.54785 73.98399 4620 ft 281 kts 184°
2026-04-24 05:59 18.52869 73.97565 4653 ft 312 kts 219°
2026-04-24 06:00 18.51412 73.95867 5446 ft 314 kts 235°
2026-04-24 06:00 18.50293 73.93847 5935 ft 329 kts 249°
2026-04-24 06:00 18.49837 73.91392 5968 ft 353 kts 272°
2026-04-24 06:00 18.50317 73.88805 5870 ft 369 kts 305°
2026-04-24 06:01 18.52201 73.86969 5815 ft 366 kts 326°
2026-04-24 06:01 18.53901 73.85291 7331 ft 323 kts 311°
2026-04-24 06:01 18.54938 73.83281 7977 ft 311 kts 291°
2026-04-24 06:01 18.55117 73.81036 8241 ft 310 kts 255°
2026-04-24 06:02 18.54207 73.78987 8301 ft 316 kts 231°
2026-04-24 06:02 18.52565 73.77531 8880 ft 294 kts 212°
2026-04-24 06:02 18.50904 73.76535 10027 ft 263 kts 200°
2026-04-24 06:02 18.49469 73.75943 10732 ft 244 kts 197°